YAOGAN-43 01J

Last updated on Mon Sep 16 2024 00:02:03 GMT+0000 (Coordinated Universal Time)

1 60466U 24148J 24259.37498303 .00023901 00000+0 10200-2 0 9999 2 60466 35.0012 226.2134 0008563 186.3415 173.7192 15.21976902 4539
UTC large
Height (km)
Speed (km/s)
/
Latitude / Longitude
Inclination (degrees)
Orbital Period (minutes)
Azimuth
Elevation
Range (km)
Doppler Factor

Next 0 passes for location: London (51.5072 / 0.1276)

Sorry there are no passes over London.